Temp
82 83 83 83 81 81 79 75 76 75 75 75 76 76 76 76 76 77 77 76 75 79 80 80 78 83 76 80 75 74 75 75 75 75 74 74 74 75 74 74 74 73 73 72 72 72 73 73 73 73 73 74 73 81 84 85 85 85 85 85 83 82
80 81 82 82 81 81 79 78 81 79 79 77 76 76 78 80 78 80 77 78 80 80 81 82 82 79 81 79 78 74 75 74 74 74 74 74 74 74 74 74 73 73 73 72 73 79 76 73 73 73 73 73 77 83 83 84 85 86 86 85 83 77
78 82 82 82 82 82 82 81 82 82 81 79 79 80 82 81 83 84 83 83 78 77 81 83 82 82 82 77 78 74 74 74 74 74 74 74 74 74 73 73 73 73 73 72 80 83 82 79 76 73 74 77 84 83 83 84 84 85 86 84 82 74
83 81 81 82 82 82 82 81 83 83 82 81 81 81 84 84 85 85 83 81 73 75 76 81 79 79 79 80 77 74 74 74 74 74 73 76 73 74 73 73 73 72 74 80 86 85 86 84 80 78 81 85 85 84 84 84 87 85 85 84 83 74
82 79 79 82 82 82 80 78 83 83 83 83 83 83 79 84 83 83 83 75 74 73 75 77 76 80 83 83 82 80 79 80 80 80 75 82 82 80 79 82 79 79 84 85 85 85 85 84 83 83 81 84 84 84 84 84 85 86 85 82 78 74
82 82 82 82 82 81 80 81 81 82 82 82 82 82 83 83 82 81 83 79 77 76 79 75 74 77 82 82 82 83 83 82 82 81 81 83 84 82 84 84 83 84 86 86 85 84 84 84 83 83 82 83 84 83 86 85 85 84 83 81 78 73
82 81 81 81 81 82 82 83 81 81 81 77 80 82 83 83 82 81 81 82 79 79 77 77 77 78 79 81 82 82 83 82 81 81 82 83 83 82 84 84 84 84 85 86 85 85 84 83 84 85 83 85 85 86 85 86 86 86 86 83 78 72
82 80 80 80 80 79 79 81 81 79 81 81 77 82 83 82 81 80 80 81 79 80 79 77 73 72 75 80 81 81 81 82 83 82 83 83 83 82 83 83 83 85 86 86 85 84 84 83 84 84 85 84 85 85 85 86 86 85 84 83 81 75
80 79 80 80 80 74 77 80 81 81 81 80 81 82 82 81 80 81 80 81 81 79 80 78 75 76 78 78 80 81 81 81 82 82 81 82 83 81 81 81 82 83 84 84 83 82 83 83 83 84 85 84 84 83 82 83 83 84 85 84 85 77
79 79 79 79 79 78 71 77 79 79 80 79 80 81 80 81 80 80 80 80 80 79 78 77 74 77 76 76 77 79 80 81 81 81 80 80 82 82 81 80 81 82 83 81 82 82 82 83 85 84 84 82 80 79 80 82 82 84 84 84 81 78
79 79 79 79 79 79 78 79 80 80 80 80 81 80 80 81 81 81 81 79 79 79 78 75 74 69 76 76 77 79 80 81 81 81 81 81 81 82 81 80 80 80 79 80 80 80 81 81 84 85 83 83 82 80 81 82 83 84 84 82 83 80
79 78 77 78 78 78 78 79 80 80 80 81 81 80 80 81 81 82 81 79 78 78 78 77 76 76 78 76 76 77 79 80 81 82 82 82 81 81 81 81 81 80 79 80 80 78 79 80 80 83 85 84 81 79 79 81 81 82 83 83 83 82
79 78 77 77 78 79 79 80 81 81 82 81 81 81 81 81 81 80 80 78 78 77 77 77 75 77 78 78 77 76 78 79 80 81 81 81 81 80 81 81 79 79 78 79 78 77 78 79 80 82 83 81 80 80 81 82 82 83 84 84 85 84
79 78 78 78 78 79 79 80 80 81 81 81 81 81 81 81 80 80 80 78 77 78 78 79 78 75 77 78 76 75 76 78 81 80 80 80 79 80 80 80 79 78 76 75 76 77 76 75 79 81 81 80 80 80 81 81 82 82 83 84 84 84
78 79 79 78 78 79 79 80 81 80 80 79 79 80 81 80 81 80 81 80 79 79 80 79 78 75 75 77 76 76 75 77 79 80 80 80 80 80 79 78 79 78 76 75 76 77 77 76 76 76 79 80 80 80 80 80 80 81 83 83 82 83
77 77 77 78 78 79 79 79 80 80 79 79 80 80 79 80 81 82 80 80 79 79 78 79 79 78 74 72 76 76 76 77 78 79 80 80 80 80 80 79 79 78 74 74 76 76 78 77 77 76 78 78 78 78 79 80 78 80 83 82 83 81
76 76 76 77 77 78 78 78 79 79 79 79 79 79 79 80 80 80 80 79 79 80 80 79 80 79 75 72 74 75 75 76 77 77 78 78 79 81 80 78 77 79 78 75 76 76 75 76 75 75 75 76 77 77 77 76 77 79 81 81 82 81
76 77 77 78 78 78 78 78 79 80 77 78 78 80 81 79 79 79 79 78 79 80 79 79 79 78 75 74 75 75 76 75 76 76 77 77 77 79 79 77 75 76 76 76 77 75 74 76 75 74 74 75 76 77 74 75 76 77 80 80 80 80
73 76 76 76 77 78 78 78 78 78 77 76 76 79 77 77 79 78 75 74 74 72 74 78 77 75 74 73 73 74 74 74 74 74 74 75 75 76 76 76 75 74 74 76 77 75 74 74 74 74 74 74 75 75 75 76 77 78 80 80 80 80
72 73 75 75 77 77 77 76 76 77 76 75 75 71 72 74 77 77 76 74 73 72 71 74 75 75 73 72 72 71 73 73 73 71 70 71 73 75 73 73 73 72 72 75 77 76 74 72 72 72 71 73 75 73 74 75 75 77 78 78 79 79
72 74 74 74 75 75 75 75 75 75 74 75 75 73 74 75 76 77 78 77 74 70 69 72 72 74 73 73 73 71 70 71 72 70 69 69 70 72 72 71 70 70 70 71 73 75 74 73 69 68 71 71 70 71 71 71 70 73 77 78 79 78
71 73 74 75 76 76 76 77 76 77 76 75 75 73 74 76 76 77 77 77 75 73 71 71 72 73 73 73 72 71 71 72 71 71 70 70 70 69 68 68 68 66 69 69 70 72 72 71 67 66 64 64 65 68 70 70 70 74 76 78 78 76
71 72 73 74 75 75 76 76 76 76 75 76 77 78 80 79 77 76 76 75 76 76 76 75 75 75 73 73 73 71 71 71 70 70 68 67 68 66 66 66 67 66 64 70 70 72 72 73 69 70 69 65 61 63 67 69 68 69 74 75 75 75
70 71 72 73 73 74 75 76 76 77 77 77 78 77 76 76 76 76 74 75 77 76 75 75 76 77 76 75 73 73 72 70 69 70 68 68 68 67 65 65 66 67 67 64 67 69 72 73 74 71 63 65 64 66 65 66 64 67 73 74 73 73
71 71 71 71 72 74 74 73 74 75 76 75 75 75 73 72 74 75 75 74 76 77 76 74 76 77 76 74 75 74 71 70 69 68 67 67 66 66 66 66 66 65 66 65 63 66 68 69 67 69 67 63 59 58 62 67 67 65 71 73 73 72
72 72 73 72 73 74 74 73 72 71 71 71 71 72 71 71 72 73 74 75 76 76 74 74 75 76 77 75 74 74 73 72 70 68 67 66 67 66 65 66 66 66 65 66 65 64 64 66 67 65 66 64 64 62 63 67 65 59 69 72 73 73
72 72 73 74 75 74 71 71 72 71 72 71 71 74 75 75 74 76 77 75 75 74 75 73 73 75 75 75 75 75 74 74 74 72 70 68 67 67 67 67 67 65 64 65 65 63 63 64 66 65 66 65 67 68 70 70 64 67 60 65 69 71
72 73 73 73 74 74 73 73 73 73 73 73 73 73 75 74 74 74 73 74 75 74 74 74 73 74 75 76 76 75 74 73 74 74 71 69 68 68 68 68 67 66 66 66 66 64 64 64 62 63 65 64 65 68 72 70 70 67 66 62 62 67
70 71 72 73 73 75 75 74 73 74 72 73 74 75 75 76 74 74 73 74 73 75 75 74 75 74 76 76 75 74 74 73 73 73 72 71 70 69 67 66 66 65 66 66 67 66 65 65 65 63 63 64 66 66 66 68 70 70 64 63 63 62
66 68 69 71 72 73 73 73 72 72 72 73 74 74 74 74 74 74 73 74 74 75 76 75 74 75 74 75 75 76 75 74 73 75 74 75 71 69 68 69 68 67 67 67 67 67 66 66 68 67 67 66 65 65 67 65 66 65 65 64 62 66
67 68 68 68 70 71 72 72 71 72 72 73 73 73 72 72 74 74 73 73 73 74 75 75 73 73 73 73 74 74 75 76 75 74 75 74 74 72 72 71 71 67 67 68 68 68 67 66 66 66 65 67 68 66 65 64 71 70 68 62 66 66
66 67 68 68 68 69 71 71 71 72 72 72 72 72 72 72 73 73 72 72 74 74 75 74 72 70 71 73 73 72 73 75 75 74 74 74 74 74 73 74 73 70 70 69 70 70 69 68 66 67 68 69 69 69 67 66 69 70 71 70 71 66
65 66 67 68 68 68 69 69 70 71 72 71 70 71 72 72 73 72 72 72 73 74 75 73 72 72 73 73 73 72 72 73 74 74 74 74 73 74 74 73 72 70 68 69 70 70 70 71 71 66 67 68 70 69 66 68 69 67 68 67 69 65
65 66 66 67 68 67 68 69 69 70 70 70 70 70 70 70 71 72 72 71 72 73 73 72 73 72 73 74 74 73 73 74 75 75 75 75 74 73 72 73 72 71 69 68 70 70 70 71 71 71 70 67 68 68 71 69 68 68 69 65 67 67
64 65 65 66 66 65 66 67 68 69 71 72 71 70 70 70 70 69 70 71 71 71 71 72 73 73 73 74 74 74 74 74 74 74 74 74 72 71 71 72 72 72 69 66 67 68 69 69 69 69 71 72 70 70 70 66 65 67 67 70 68 69
64 64 66 65 65 65 65 65 66 66 68 70 70 71 71 71 70 70 70 70 70 70 70 71 73 74 74 74 74 75 75 74 75 75 75 74 72 72 72 71 72 72 69 68 65 66 67 68 69 70 71 71 68 65 67 67 65 70 72 68 66 68
64 65 65 65 65 65 64 63 64 66 67 68 69 69 69 70 70 71 70 70 70 70 70 70 71 73 73 74 74 74 73 72 72 73 74 73 72 73 73 71 71 70 69 68 67 68 67 69 71 71 71 69 65 66 67 68 72 74 73 70 67 66
MSLP
1016.32 1016.44 1016.64 1016.80 1017.12 1017.44 1017.88 1018.16 1018.28 1018.44 1018.52 1018.68 1018.76 1018.88 1018.96 1019.04 1019.08 1019.12 1019.12 1019.16 1019.20 1019.16 1019.00 1019.08 1019.28 1019.16 1019.76 1019.80 1020.04 1020.20 1020.32 1020.44 1020.48 1020.48 1020.48 1020.48 1020.48 1020.52 1020.56 1020.60 1020.72 1020.88 1021.00 1021.08 1021.16 1021.24 1021.32 1021.28 1021.24 1021.20 1021.16 1021.08 1020.88 1020.36 1020.16 1020.12 1020.08 1020.12 1020.20 1020.36 1020.60 1021.12
1016.60 1016.60 1016.60 1016.80 1017.04 1017.24 1017.68 1018.00 1018.08 1018.36 1018.48 1018.68 1018.84 1018.92 1018.92 1018.76 1018.92 1018.88 1019.12 1019.12 1019.12 1019.00 1018.96 1018.88 1018.92 1019.12 1019.28 1019.72 1020.04 1020.28 1020.40 1020.52 1020.60 1020.60 1020.56 1020.60 1020.60 1020.64 1020.72 1020.76 1020.88 1021.00 1021.12 1021.20 1021.24 1021.04 1021.32 1021.52 1021.48 1021.40 1021.28 1021.08 1020.80 1020.44 1020.44 1020.36 1020.16 1020.16 1020.28 1020.40 1020.88 1021.56
1016.76 1016.48 1016.68 1016.80 1016.96 1017.16 1017.40 1017.72 1017.92 1018.16 1018.40 1018.60 1018.68 1018.72 1018.56 1018.64 1018.56 1018.56 1018.76 1018.84 1019.20 1019.36 1019.00 1018.88 1018.88 1019.00 1019.12 1019.56 1019.96 1020.28 1020.44 1020.60 1020.68 1020.72 1020.72 1020.68 1020.72 1020.76 1020.80 1020.92 1021.00 1021.12 1021.24 1021.28 1020.88 1020.68 1020.84 1021.20 1021.48 1021.56 1021.36 1021.00 1020.52 1020.56 1020.56 1020.52 1020.40 1020.24 1020.32 1020.72 1021.16 1021.80
1016.28 1016.52 1016.68 1016.84 1016.96 1017.12 1017.28 1017.60 1017.72 1017.96 1018.20 1018.36 1018.40 1018.48 1018.36 1018.32 1018.32 1018.28 1018.64 1018.76 1019.68 1019.76 1019.32 1018.80 1019.04 1019.24 1019.40 1019.56 1020.00 1020.28 1020.40 1020.52 1020.68 1020.80 1020.84 1020.72 1020.84 1020.88 1020.96 1021.04 1021.12 1021.24 1021.24 1020.84 1020.32 1020.44 1020.36 1020.64 1021.08 1021.24 1020.84 1020.48 1020.48 1020.68 1020.68 1020.52 1020.32 1020.44 1020.56 1020.92 1021.36 1021.96
1016.24 1016.68 1016.96 1016.84 1017.08 1017.20 1017.44 1017.92 1017.56 1017.84 1018.04 1018.12 1018.20 1018.24 1018.68 1018.32 1018.36 1018.40 1018.44 1019.16 1019.56 1019.80 1019.52 1019.28 1019.56 1019.32 1019.24 1019.32 1019.56 1019.88 1020.12 1020.12 1020.28 1020.56 1020.76 1020.44 1020.44 1020.76 1020.76 1020.76 1021.08 1021.12 1020.64 1020.40 1020.36 1020.32 1020.32 1020.56 1020.64 1020.76 1020.80 1020.60 1020.64 1020.68 1020.64 1020.60 1020.60 1020.52 1020.68 1021.12 1021.76 1022.08
1016.28 1016.44 1016.68 1017.00 1017.16 1017.40 1017.52 1017.64 1017.92 1017.88 1018.00 1018.12 1018.20 1018.32 1018.32 1018.36 1018.44 1018.52 1018.40 1018.76 1019.12 1019.24 1018.88 1019.44 1019.72 1019.60 1019.28 1019.36 1019.52 1019.56 1019.60 1019.84 1019.96 1020.28 1020.40 1020.20 1020.08 1020.40 1020.32 1020.36 1020.48 1020.52 1020.24 1020.16 1020.36 1020.44 1020.48 1020.64 1020.76 1020.72 1020.76 1020.76 1020.72 1020.76 1020.52 1020.64 1020.80 1020.92 1021.04 1021.44 1022.00 1022.20
1016.40 1016.64 1016.96 1017.16 1017.28 1017.40 1017.48 1017.52 1017.76 1017.92 1018.00 1018.40 1018.36 1018.28 1018.36 1018.32 1018.40 1018.56 1018.60 1018.56 1018.88 1018.92 1019.20 1019.24 1019.44 1019.40 1019.40 1019.28 1019.40 1019.64 1019.56 1019.68 1019.92 1020.08 1020.16 1020.16 1020.16 1020.28 1020.20 1020.28 1020.24 1020.24 1020.04 1020.12 1020.36 1020.48 1020.68 1020.72 1020.60 1020.68 1020.72 1020.72 1020.72 1020.68 1020.64 1020.56 1020.64 1020.68 1020.68 1021.36 1022.04 1022.44
1016.60 1016.96 1017.28 1017.40 1017.48 1017.76 1017.76 1017.72 1017.84 1018.16 1018.00 1018.12 1018.60 1018.32 1018.20 1018.36 1018.48 1018.68 1018.72 1018.80 1018.92 1018.92 1019.12 1019.40 1019.96 1020.12 1019.88 1019.36 1019.48 1019.64 1019.72 1019.72 1019.72 1019.96 1020.04 1020.08 1020.32 1020.36 1020.28 1020.24 1020.28 1020.16 1020.16 1020.12 1020.40 1020.60 1020.68 1020.84 1020.80 1020.64 1020.76 1020.80 1020.80 1020.64 1020.60 1020.56 1020.56 1020.80 1021.00 1021.24 1021.80 1022.40
1016.92 1017.24 1017.32 1017.48 1017.60 1018.24 1018.20 1017.92 1017.84 1017.92 1018.04 1018.16 1018.20 1018.16 1018.16 1018.36 1018.60 1018.60 1018.80 1018.88 1018.96 1019.20 1019.08 1019.28 1019.68 1019.64 1019.56 1019.72 1019.60 1019.68 1019.68 1019.80 1019.76 1019.92 1020.16 1020.16 1020.12 1020.32 1020.40 1020.44 1020.48 1020.36 1020.20 1020.36 1020.56 1020.80 1020.88 1020.84 1020.80 1020.68 1020.72 1020.92 1020.84 1021.00 1021.00 1020.84 1020.92 1020.92 1020.80 1021.08 1021.08 1022.24
1017.16 1017.36 1017.52 1017.64 1017.76 1017.92 1018.76 1018.24 1018.04 1018.12 1018.12 1018.20 1018.24 1018.20 1018.40 1018.48 1018.64 1018.76 1018.88 1018.88 1018.96 1019.12 1019.32 1019.44 1019.80 1019.60 1019.80 1020.00 1019.96 1019.80 1019.76 1019.72 1019.84 1019.88 1020.08 1020.28 1020.08 1020.20 1020.44 1020.56 1020.48 1020.44 1020.48 1020.60 1020.68 1020.80 1020.84 1020.88 1020.76 1020.76 1020.92 1021.24 1021.44 1021.36 1021.16 1021.04 1021.04 1020.92 1021.00 1021.08 1021.56 1022.20
1017.28 1017.48 1017.64 1017.84 1017.84 1017.96 1018.04 1018.04 1018.04 1018.04 1018.08 1018.24 1018.24 1018.32 1018.48 1018.52 1018.64 1018.76 1018.76 1019.00 1019.04 1019.16 1019.36 1019.60 1019.80 1020.64 1019.84 1019.92 1020.00 1019.96 1019.80 1019.64 1019.72 1019.80 1019.84 1020.04 1020.04 1020.08 1020.20 1020.52 1020.56 1020.64 1020.68 1020.72 1020.76 1020.84 1020.84 1020.92 1020.76 1020.84 1021.04 1021.20 1021.20 1021.16 1021.24 1021.08 1021.00 1021.00 1021.08 1021.32 1021.52 1021.96
1017.48 1017.72 1017.92 1018.00 1018.12 1018.12 1018.12 1018.04 1018.04 1018.04 1018.12 1018.08 1018.16 1018.40 1018.52 1018.56 1018.60 1018.56 1018.68 1018.96 1019.12 1019.16 1019.28 1019.32 1019.52 1019.68 1019.60 1019.88 1020.04 1020.04 1019.84 1019.72 1019.64 1019.60 1019.68 1019.76 1019.96 1020.04 1020.12 1020.32 1020.44 1020.56 1020.60 1020.60 1020.80 1021.04 1021.00 1021.04 1021.04 1020.80 1020.80 1020.92 1021.08 1021.32 1021.36 1021.32 1021.24 1021.12 1021.04 1021.08 1021.32 1021.48
1017.48 1017.80 1018.00 1018.12 1018.08 1018.00 1017.96 1017.96 1017.96 1017.96 1017.96 1018.04 1018.16 1018.28 1018.44 1018.52 1018.60 1018.68 1018.88 1019.08 1019.16 1019.28 1019.32 1019.52 1019.68 1019.60 1019.64 1019.80 1019.96 1020.08 1019.88 1019.72 1019.60 1019.52 1019.56 1019.72 1019.84 1020.00 1020.08 1020.24 1020.48 1020.56 1020.64 1020.72 1020.96 1021.20 1021.12 1021.00 1021.04 1020.92 1020.76 1021.12 1021.20 1021.28 1021.20 1021.16 1021.16 1021.08 1021.04 1021.00 1020.96 1021.08
1017.48 1017.76 1017.92 1017.92 1018.00 1018.00 1018.00 1018.00 1017.96 1017.96 1018.00 1018.04 1018.16 1018.32 1018.44 1018.48 1018.64 1018.76 1018.88 1019.16 1019.28 1019.20 1019.28 1019.20 1019.48 1019.80 1019.68 1019.72 1019.88 1020.08 1020.04 1019.80 1019.52 1019.52 1019.56 1019.72 1019.96 1019.96 1020.16 1020.28 1020.48 1020.56 1020.84 1020.96 1021.08 1021.08 1021.24 1021.44 1021.12 1020.96 1021.00 1021.16 1021.16 1021.12 1021.12 1021.16 1021.08 1021.08 1021.08 1021.04 1021.00 1021.00
1017.64 1017.72 1017.84 1017.92 1018.04 1018.08 1018.04 1018.00 1017.96 1018.04 1018.12 1018.24 1018.32 1018.44 1018.44 1018.48 1018.64 1018.72 1018.80 1019.00 1019.16 1019.20 1019.24 1019.24 1019.36 1019.68 1019.72 1019.64 1019.84 1020.08 1020.08 1019.84 1019.56 1019.56 1019.64 1019.64 1019.80 1019.88 1020.00 1020.32 1020.32 1020.52 1020.76 1020.88 1020.92 1020.96 1021.04 1021.24 1021.32 1021.28 1021.16 1021.12 1021.12 1021.16 1021.16 1021.20 1021.20 1021.16 1021.08 1021.08 1021.16 1021.16
1017.76 1017.92 1018.00 1018.00 1018.04 1018.00 1018.00 1018.00 1017.96 1018.04 1018.16 1018.32 1018.40 1018.44 1018.52 1018.56 1018.56 1018.60 1018.80 1018.92 1019.12 1019.28 1019.40 1019.36 1019.32 1019.40 1019.76 1019.96 1019.64 1019.80 1019.88 1019.72 1019.68 1019.60 1019.56 1019.52 1019.64 1019.76 1019.88 1020.08 1020.12 1020.24 1020.84 1020.96 1020.88 1021.00 1020.84 1021.04 1021.16 1021.28 1021.20 1021.20 1021.16 1021.20 1021.24 1021.24 1021.36 1021.20 1020.92 1021.12 1021.08 1021.28
1017.80 1018.00 1018.12 1018.08 1018.08 1018.04 1018.04 1018.04 1018.04 1018.08 1018.20 1018.32 1018.44 1018.52 1018.52 1018.52 1018.64 1018.80 1018.88 1019.04 1019.08 1019.24 1019.32 1019.40 1019.28 1019.24 1019.52 1019.76 1019.60 1019.76 1019.68 1019.72 1019.68 1019.72 1019.68 1019.60 1019.64 1019.44 1019.68 1020.04 1020.12 1020.00 1020.24 1020.72 1020.80 1020.96 1021.08 1021.08 1021.32 1021.36 1021.36 1021.40 1021.24 1021.24 1021.40 1021.56 1021.48 1021.28 1021.12 1021.16 1021.12 1021.36
1017.72 1017.76 1017.92 1018.04 1018.04 1018.08 1018.04 1018.12 1018.12 1018.12 1018.36 1018.48 1018.56 1018.44 1018.44 1018.60 1018.76 1018.88 1018.88 1019.00 1019.04 1019.08 1019.24 1019.32 1019.28 1019.28 1019.48 1019.52 1019.48 1019.60 1019.60 1019.72 1019.68 1019.64 1019.68 1019.68 1019.68 1019.44 1019.56 1019.88 1020.28 1020.16 1020.20 1020.40 1020.48 1020.76 1021.12 1021.04 1021.16 1021.44 1021.44 1021.48 1021.40 1021.36 1021.64 1021.60 1021.40 1021.36 1021.24 1021.20 1021.24 1021.32
1017.80 1017.80 1017.96 1018.04 1017.96 1017.96 1018.00 1018.12 1018.12 1018.20 1018.32 1018.52 1018.60 1018.48 1018.52 1018.44 1018.44 1018.68 1018.80 1018.92 1019.16 1019.44 1019.56 1019.28 1019.36 1019.44 1019.56 1019.64 1019.64 1019.52 1019.56 1019.64 1019.68 1019.72 1019.76 1019.80 1019.84 1019.80 1019.76 1019.84 1020.04 1020.32 1020.24 1020.20 1020.24 1020.60 1020.96 1021.00 1021.20 1021.28 1021.44 1021.48 1021.36 1021.40 1021.44 1021.40 1021.28 1021.32 1021.16 1021.12 1021.16 1021.28
1017.96 1018.04 1017.96 1018.04 1017.96 1018.08 1018.12 1018.20 1018.40 1018.24 1018.28 1018.40 1018.44 1018.52 1018.16 1017.84 1017.92 1018.24 1018.36 1018.28 1018.40 1018.68 1019.04 1019.20 1019.00 1019.00 1019.24 1019.44 1019.44 1019.48 1019.44 1019.44 1019.56 1019.68 1019.88 1020.04 1019.92 1019.72 1019.84 1019.96 1020.04 1020.28 1020.52 1020.36 1020.20 1020.40 1020.72 1021.04 1021.24 1021.32 1021.56 1021.40 1021.32 1021.44 1021.44 1021.36 1021.48 1021.32 1021.24 1021.28 1021.24 1021.24
1018.20 1018.08 1018.08 1018.20 1018.20 1018.28 1018.36 1018.36 1018.40 1018.44 1018.48 1018.36 1018.40 1018.44 1018.28 1018.00 1018.16 1018.20 1018.16 1018.04 1018.24 1018.48 1018.44 1018.48 1018.48 1018.64 1018.84 1018.92 1018.96 1019.12 1019.32 1019.36 1019.40 1019.60 1019.76 1019.96 1019.88 1019.84 1019.76 1019.84 1020.16 1020.36 1020.64 1020.76 1020.68 1020.52 1020.76 1020.84 1021.44 1021.80 1021.60 1021.60 1021.68 1021.64 1021.64 1021.68 1021.88 1021.48 1021.24 1021.20 1021.08 1021.32
1018.12 1018.20 1018.12 1018.04 1018.08 1018.08 1018.00 1017.92 1018.00 1018.00 1018.08 1018.20 1018.24 1018.40 1018.32 1017.96 1018.12 1018.36 1018.52 1018.40 1018.32 1018.48 1018.56 1018.60 1018.60 1018.56 1018.64 1018.60 1018.64 1018.76 1018.84 1018.92 1019.12 1019.36 1019.48 1019.68 1019.84 1019.88 1020.04 1020.20 1020.28 1020.68 1020.60 1020.68 1020.80 1020.64 1020.76 1020.84 1021.60 1021.84 1022.28 1022.40 1022.28 1021.92 1021.76 1021.76 1021.76 1021.32 1021.16 1021.08 1021.12 1021.24
1018.12 1018.12 1018.04 1017.92 1017.84 1018.00 1017.76 1017.64 1017.80 1017.88 1017.88 1017.84 1017.52 1017.36 1017.28 1017.44 1017.92 1018.28 1018.36 1018.32 1018.24 1018.24 1018.24 1018.28 1018.20 1018.24 1018.40 1018.36 1018.36 1018.44 1018.60 1018.52 1018.68 1019.00 1019.44 1019.64 1019.68 1019.96 1020.16 1020.32 1020.36 1020.68 1020.96 1020.60 1020.60 1020.52 1020.56 1020.36 1020.96 1021.00 1021.36 1022.20 1022.64 1022.56 1022.08 1021.92 1021.80 1021.72 1021.28 1021.20 1021.24 1021.40
1018.32 1018.28 1018.28 1018.08 1017.96 1017.76 1017.68 1017.60 1017.48 1017.48 1017.44 1017.44 1017.44 1017.36 1017.44 1017.48 1017.72 1017.92 1018.20 1018.16 1018.04 1018.00 1018.00 1018.00 1017.88 1017.88 1017.84 1017.80 1017.92 1018.00 1018.08 1018.20 1018.36 1018.56 1018.88 1019.20 1019.44 1019.80 1020.04 1020.32 1020.32 1020.48 1020.56 1021.08 1020.80 1020.76 1020.40 1020.24 1020.12 1020.72 1022.04 1021.68 1021.80 1021.84 1021.72 1021.56 1021.96 1021.72 1021.24 1021.24 1021.32 1021.48
1018.08 1018.08 1018.08 1018.08 1018.00 1017.80 1017.76 1017.76 1017.56 1017.44 1017.40 1017.52 1017.52 1017.64 1017.88 1018.00 1017.88 1017.92 1018.16 1018.12 1017.88 1017.76 1017.80 1017.92 1017.88 1017.88 1017.88 1017.80 1017.64 1017.60 1017.76 1017.96 1018.12 1018.32 1018.64 1018.96 1019.20 1019.48 1019.60 1019.76 1020.04 1020.32 1020.44 1020.60 1020.92 1020.72 1020.68 1020.44 1020.52 1020.28 1020.88 1021.88 1022.56 1022.96 1021.80 1020.88 1021.24 1021.68 1021.24 1021.28 1021.20 1021.24
1018.00 1017.96 1017.92 1017.96 1017.80 1017.60 1017.64 1017.56 1017.76 1017.96 1018.12 1018.16 1018.08 1018.04 1018.28 1018.28 1018.12 1017.92 1017.92 1017.76 1017.72 1017.60 1017.68 1017.76 1017.72 1017.76 1017.68 1017.60 1017.56 1017.40 1017.40 1017.64 1017.88 1018.16 1018.44 1018.64 1018.72 1019.04 1019.28 1019.44 1019.64 1020.08 1020.48 1020.32 1020.40 1020.76 1020.92 1020.68 1020.52 1020.76 1020.64 1021.16 1021.32 1021.56 1021.36 1020.48 1021.08 1022.12 1021.28 1021.00 1020.96 1021.08
1018.12 1018.00 1017.80 1017.60 1017.40 1017.52 1017.68 1017.64 1017.60 1017.76 1017.80 1017.96 1018.12 1017.68 1017.40 1017.48 1017.64 1017.44 1017.28 1017.52 1017.64 1017.60 1017.56 1017.64 1017.60 1017.44 1017.44 1017.32 1017.16 1017.12 1017.20 1017.36 1017.48 1017.72 1018.04 1018.28 1018.48 1018.60 1018.88 1019.12 1019.40 1019.72 1020.00 1020.16 1020.36 1020.60 1020.68 1020.64 1020.64 1020.56 1020.60 1020.76 1020.68 1020.60 1020.04 1020.08 1021.20 1020.84 1022.24 1021.68 1021.28 1021.12
1018.04 1017.96 1017.84 1017.76 1017.52 1017.40 1017.52 1017.44 1017.40 1017.44 1017.48 1017.56 1017.52 1017.44 1017.20 1017.24 1017.20 1017.28 1017.36 1017.24 1017.28 1017.32 1017.36 1017.32 1017.36 1017.32 1017.16 1017.08 1017.00 1016.96 1017.12 1017.28 1017.48 1017.48 1017.72 1018.00 1018.08 1018.12 1018.52 1018.80 1019.04 1019.44 1019.68 1019.72 1019.76 1020.04 1020.24 1020.36 1020.60 1020.44 1020.24 1020.48 1020.48 1020.48 1020.04 1020.04 1020.28 1020.60 1020.80 1021.80 1021.92 1021.40
1018.40 1018.12 1017.96 1017.76 1017.68 1017.36 1017.24 1017.24 1017.24 1017.24 1017.36 1017.16 1017.08 1017.04 1016.92 1016.84 1017.08 1017.08 1017.12 1016.88 1016.92 1016.84 1016.84 1016.88 1016.88 1016.96 1016.84 1017.00 1017.12 1016.96 1016.96 1017.08 1017.24 1017.36 1017.64 1017.64 1017.60 1017.84 1018.32 1018.64 1018.92 1019.28 1019.44 1019.56 1019.60 1019.56 1019.84 1020.00 1020.08 1020.08 1020.20 1020.24 1020.40 1020.64 1020.68 1020.44 1020.24 1020.36 1020.92 1021.28 1021.32 1021.72
1018.92 1018.60 1018.28 1017.96 1017.72 1017.52 1017.40 1017.36 1017.36 1017.24 1017.16 1017.00 1016.88 1016.80 1016.84 1016.84 1016.80 1016.80 1017.00 1016.92 1016.80 1016.68 1016.56 1016.64 1016.72 1016.60 1016.72 1016.88 1016.96 1016.80 1016.72 1016.88 1017.00 1017.08 1017.16 1017.04 1017.36 1017.64 1018.04 1018.28 1018.48 1018.84 1019.04 1019.32 1019.40 1019.44 1019.48 1019.48 1019.40 1019.52 1019.64 1019.92 1020.44 1020.28 1020.28 1020.72 1020.52 1020.88 1020.76 1020.80 1021.32 1021.08
1019.00 1018.76 1018.52 1018.32 1018.00 1017.84 1017.60 1017.44 1017.48 1017.32 1017.08 1016.96 1016.80 1016.80 1016.80 1016.80 1016.64 1016.72 1016.80 1016.84 1016.80 1016.60 1016.48 1016.60 1016.68 1016.56 1016.52 1016.68 1016.80 1016.80 1016.60 1016.48 1016.64 1016.80 1016.92 1016.88 1016.96 1017.12 1017.44 1017.68 1018.08 1018.88 1019.08 1019.04 1019.00 1019.04 1019.16 1019.28 1019.40 1019.56 1019.84 1019.80 1019.60 1019.84 1020.04 1020.40 1019.44 1019.56 1019.96 1021.04 1020.24 1020.72
1019.16 1018.92 1018.68 1018.48 1018.28 1018.00 1017.80 1017.60 1017.36 1017.24 1017.08 1016.84 1016.72 1016.68 1016.60 1016.56 1016.56 1016.56 1016.48 1016.56 1016.32 1016.12 1016.08 1016.24 1016.52 1016.68 1016.56 1016.40 1016.56 1016.72 1016.60 1016.40 1016.44 1016.60 1016.80 1016.84 1016.88 1016.96 1017.16 1017.36 1017.68 1018.24 1018.44 1018.52 1018.60 1018.76 1018.92 1019.04 1019.52 1019.44 1019.44 1019.32 1019.32 1019.32 1019.68 1019.96 1019.60 1019.40 1019.12 1019.24 1019.24 1020.40
1019.32 1019.04 1018.84 1018.52 1018.40 1018.24 1017.92 1017.72 1017.52 1017.28 1017.00 1016.92 1016.92 1016.68 1016.44 1016.36 1016.28 1016.40 1016.32 1016.24 1016.12 1016.00 1015.76 1015.96 1016.16 1016.24 1016.08 1016.20 1016.32 1016.56 1016.48 1016.32 1016.28 1016.36 1016.52 1016.72 1016.84 1016.92 1017.12 1017.48 1017.64 1018.00 1018.20 1018.36 1018.48 1018.64 1018.68 1018.60 1018.64 1019.24 1019.08 1019.08 1019.04 1019.20 1019.72 1019.64 1019.72 1019.76 1019.48 1019.48 1019.40 1019.96
1019.40 1019.24 1019.04 1018.76 1018.48 1018.32 1018.12 1017.80 1017.56 1017.36 1017.24 1017.04 1016.96 1016.88 1016.72 1016.56 1016.32 1016.24 1016.24 1016.24 1016.08 1015.92 1015.88 1015.84 1015.80 1015.92 1015.88 1015.96 1016.00 1016.08 1015.96 1015.96 1015.92 1016.04 1016.28 1016.44 1016.68 1016.88 1017.12 1017.32 1017.56 1017.80 1017.96 1018.24 1018.28 1018.44 1018.52 1018.40 1018.32 1018.36 1018.56 1019.00 1018.96 1019.16 1019.16 1019.44 1019.72 1019.72 1019.56 1020.16 1019.84 1019.60
1019.64 1019.44 1019.20 1018.92 1018.72 1018.68 1018.44 1018.12 1017.76 1017.36 1017.04 1016.84 1016.84 1016.76 1016.64 1016.48 1016.40 1016.40 1016.24 1016.12 1015.92 1015.80 1015.80 1015.64 1015.52 1015.44 1015.56 1015.64 1015.64 1015.64 1015.60 1015.72 1015.84 1016.00 1016.12 1016.40 1016.72 1016.92 1017.08 1017.20 1017.40 1017.64 1018.00 1018.08 1018.20 1018.28 1018.32 1018.36 1018.36 1018.40 1018.40 1018.28 1018.60 1018.68 1018.76 1019.52 1019.76 1019.64 1019.72 1019.44 1019.60 1019.36
1019.88 1019.52 1019.08 1018.96 1018.80 1018.68 1018.56 1018.32 1018.04 1017.72 1017.32 1017.00 1016.76 1016.64 1016.48 1016.36 1016.32 1016.28 1016.16 1015.96 1015.88 1015.84 1015.64 1015.48 1015.32 1015.16 1015.24 1015.32 1015.32 1015.32 1015.36 1015.56 1015.64 1015.72 1015.88 1016.12 1016.40 1016.68 1016.84 1017.04 1017.24 1017.36 1017.76 1017.76 1017.96 1018.04 1018.28 1018.40 1018.16 1018.08 1018.16 1018.20 1018.48 1018.76 1018.96 1019.00 1019.48 1019.00 1018.92 1019.00 1019.44 1019.12
1019.96 1019.64 1019.32 1019.08 1018.80 1018.76 1018.60 1018.48 1018.16 1017.80 1017.48 1017.12 1016.88 1016.64 1016.40 1016.16 1016.04 1015.88 1015.84 1015.84 1015.76 1015.60 1015.52 1015.52 1015.44 1015.12 1015.16 1015.12 1014.96 1014.96 1015.16 1015.32 1015.52 1015.60 1015.76 1015.88 1016.20 1016.32 1016.44 1016.64 1016.88 1017.08 1017.32 1017.52 1017.76 1017.80 1018.12 1018.00 1017.68 1017.76 1017.84 1018.16 1018.60 1018.60 1018.56 1018.76 1018.44 1018.36 1018.64 1018.88 1019.32 1019.56
Wind_Speed
10 11 11 11 10 11 12 11 11 10 10 9 10 9 9 10 10 11 11 9 8 8 10 9 10 10 12 9 9 10 9 9 8 8 7 6 5 7 8 11 11 9 10 11 10 10 9 9 10 10 10 9 10 5 4 4 4 5 6 6 7 8
7 10 10 8 8 9 11 11 11 12 11 12 11 11 11 11 12 10 11 10 8 7 7 8 8 10 8 11 9 10 9 8 8 7 6 6 6 7 9 10 11 11 11 11 12 7 8 8 8 9 9 10 7 4 3 3 3 5 6 6 8 9
10 10 11 9 8 9 11 10 11 10 8 11 12 12 11 10 10 10 11 10 5 2 6 6 6 7 6 9 11 11 11 9 8 7 6 6 6 8 9 10 12 12 11 12 9 6 6 6 5 7 9 8 3 2 4 3 4 4 5 7 7 10
9 11 9 7 7 8 9 8 8 8 8 8 9 9 9 10 8 9 8 8 6 7 6 5 5 7 10 9 10 11 11 11 10 7 7 7 7 7 10 10 11 12 10 9 4 5 6 6 6 6 4 2 3 4 3 3 3 5 5 7 8 9
8 9 9 7 7 7 8 7 6 7 7 7 7 8 6 6 6 7 8 1 0 3 7 4 3 5 6 6 8 8 9 8 8 8 9 7 7 8 9 9 8 10 8 6 4 3 3 5 4 4 2 2 4 3 3 3 4 4 5 7 8 6
8 8 8 6 6 6 7 6 6 6 6 5 6 5 6 5 6 6 5 7 7 7 3 4 6 7 5 5 5 6 7 6 7 8 7 6 7 8 7 8 9 9 6 4 4 3 3 4 4 4 3 3 4 3 3 4 4 4 5 6 7 6
7 6 6 4 5 5 5 5 5 5 6 6 4 6 6 5 5 5 5 5 4 4 4 3 4 5 5 4 4 4 4 6 7 6 6 5 6 6 6 6 7 7 5 5 5 4 4 4 3 4 4 4 3 4 4 4 4 3 4 6 7 5
5 5 5 5 5 3 3 4 5 5 5 5 7 6 6 5 5 5 5 4 4 5 4 4 2 4 4 4 4 3 3 4 5 5 5 5 6 7 6 5 6 6 6 5 5 4 4 4 4 3 5 4 4 4 3 3 3 4 4 4 5 6
5 5 5 4 4 5 2 5 4 5 5 4 5 5 5 5 5 5 5 5 6 5 5 4 5 5 4 3 2 4 3 4 4 5 5 5 6 6 6 5 6 6 5 4 5 5 4 5 4 4 4 4 3 4 3 3 4 4 3 4 4 7
6 5 5 5 4 4 4 6 5 5 4 5 4 4 5 5 4 4 4 5 5 5 4 3 4 4 5 4 4 3 3 4 5 5 6 6 6 6 7 6 6 5 5 4 4 5 4 5 5 4 4 5 5 4 2 4 3 3 3 3 5 6
5 5 4 5 4 4 4 5 5 5 5 5 5 4 5 4 5 5 5 5 5 5 5 5 4 5 5 5 4 3 4 4 5 5 5 6 6 7 7 6 7 6 5 5 5 4 4 4 4 5 5 6 5 4 2 2 3 3 4 4 5 6
4 4 3 4 4 5 5 4 5 5 5 5 5 4 4 4 5 5 5 5 5 5 5 4 5 7 5 4 4 4 5 5 5 5 6 6 7 6 6 7 7 6 6 5 5 4 3 4 4 5 5 5 4 4 4 3 3 3 3 4 4 5
3 4 4 4 4 4 4 4 4 4 3 4 4 4 4 4 4 4 4 4 4 5 5 5 5 5 5 5 5 5 5 4 4 4 5 6 7 7 7 7 8 7 6 5 6 5 4 4 5 5 4 5 4 4 4 4 3 3 3 4 4 5
3 4 4 4 4 4 4 3 3 3 3 3 2 2 3 3 3 3 4 4 6 7 7 6 6 5 5 5 5 5 5 5 5 4 5 6 7 7 7 7 8 8 7 6 7 7 5 4 5 4 4 5 4 4 4 4 4 3 3 4 4 4
1 3 4 5 4 4 4 4 4 3 2 2 2 3 3 3 3 3 4 5 6 6 7 6 5 5 6 6 5 5 6 6 5 5 5 6 7 7 7 8 7 8 7 7 7 7 7 6 6 6 5 4 4 4 3 4 4 4 4 3 4 4
4 3 3 4 4 4 4 4 4 3 3 3 3 3 3 3 3 3 3 4 5 6 5 6 6 6 5 5 6 6 6 6 6 5 6 6 7 8 7 8 8 8 8 8 8 8 7 7 7 6 5 5 4 4 4 4 4 4 4 4 5 5
3 4 4 4 5 5 5 5 4 3 3 3 3 3 3 4 3 3 3 4 5 5 6 5 6 7 6 5 6 5 5 6 6 6 6 6 7 7 8 7 8 9 8 8 8 8 7 6 5 6 6 6 5 5 3 2 4 3 3 4 4 5
3 3 3 5 5 5 5 5 4 3 3 3 3 3 2 3 4 3 4 5 6 6 5 6 6 5 5 5 6 6 7 6 6 6 6 6 7 6 7 7 7 7 7 7 8 8 7 7 6 6 6 6 5 4 3 4 4 3 4 5 4 5
1 3 4 5 5 5 5 5 4 4 4 4 3 2 3 6 5 4 4 3 5 4 7 5 5 5 5 5 6 6 6 7 7 7 6 7 6 7 7 8 9 8 6 7 7 7 6 6 6 5 6 6 5 5 5 5 4 5 4 5 5 4
4 4 4 5 5 5 5 5 5 5 6 5 5 4 7 8 7 7 7 7 7 6 5 6 7 8 8 8 8 7 7 8 7 6 7 7 8 8 9 9 8 8 7 8 7 6 6 6 5 6 5 6 5 5 5 5 6 5 5 5 5 5
3 3 3 4 4 4 5 5 5 5 5 4 5 6 8 9 7 7 8 8 8 7 7 9 8 9 9 9 8 7 7 7 7 6 6 6 7 5 4 6 6 5 7 8 7 6 7 6 6 6 5 6 5 3 5 5 6 7 6 5 5 5
5 5 4 3 4 5 5 5 5 4 4 4 5 7 8 9 8 5 6 7 8 7 7 7 7 9 9 10 9 7 8 8 8 8 6 7 7 4 4 4 4 6 6 7 7 7 7 8 7 7 6 5 4 4 4 7 7 9 7 6 6 6
4 5 5 5 4 4 5 5 5 4 5 5 7 7 8 7 5 6 7 9 9 8 9 10 10 10 9 10 10 8 7 7 7 6 6 8 6 7 5 4 6 7 6 6 6 7 9 10 7 7 8 7 5 6 6 6 6 8 7 6 5 5
4 3 3 4 5 5 6 5 5 6 6 7 6 6 7 8 7 8 9 9 9 9 10 10 11 11 11 10 10 10 9 9 8 6 7 7 8 6 7 8 6 5 7 7 6 8 8 10 7 8 8 9 5 6 9 9 6 8 8 8 7 6
2 4 6 6 6 5 4 6 6 6 7 7 7 6 6 7 7 6 5 8 10 10 10 10 10 9 9 9 10 10 9 9 9 7 7 7 7 7 8 9 8 8 8 6 7 6 7 5 5 5 1 2 2 4 8 7 10 7 8 9 9 7
4 1 2 5 6 5 4 5 6 5 5 5 6 5 6 6 7 8 7 7 9 10 10 8 9 9 10 9 8 9 10 10 9 9 9 9 9 8 10 10 10 6 7 5 5 6 6 7 6 5 3 3 4 5 6 7 9 7 9 8 7 9
4 4 4 3 3 2 3 4 5 6 6 5 5 5 5 5 6 6 6 5 7 8 9 9 10 9 10 10 9 9 9 9 8 9 9 10 10 9 10 9 7 8 8 7 6 6 8 7 6 7 6 6 7 6 3 6 8 5 8 8 7 8
4 4 4 5 5 4 5 5 6 7 6 7 7 7 6 6 5 6 6 6 5 6 7 8 9 10 11 10 9 8 8 9 8 8 7 9 11 8 7 7 9 9 8 8 9 8 7 8 10 8 6 6 8 8 5 3 6 7 7 9 9 6
9 8 6 6 5 5 6 7 6 6 6 6 6 6 6 5 5 6 7 7 7 7 8 9 10 11 11 9 8 8 8 9 9 8 8 10 10 10 9 8 10 11 9 8 8 7 8 8 8 9 7 10 8 7 8 6 6 4 5 6 7 9
11 8 8 9 8 7 6 6 6 7 8 7 6 6 6 7 7 6 7 7 6 7 7 7 8 10 9 9 9 9 9 10 9 9 9 9 11 11 10 11 10 8 9 10 9 9 10 8 8 7 6 7 9 8 5 7 11 8 5 4 7 11
10 9 9 10 9 8 7 6 6 8 9 9 8 7 7 8 8 6 6 6 6 6 6 6 6 8 9 9 9 8 9 10 9 8 8 9 9 9 9 10 9 8 11 11 8 10 9 6 4 6 8 9 7 6 7 9 9 9 9 12 9 8
10 10 9 8 9 8 7 7 7 8 9 9 9 7 8 9 7 7 6 7 7 7 7 6 7 6 9 9 9 9 9 9 9 9 8 7 8 8 8 8 8 9 9 9 7 7 8 9 10 10 10 7 8 7 5 8 2 5 7 3 4 7
10 11 10 9 8 9 9 7 6 8 8 7 8 9 9 10 8 7 7 8 8 8 7 7 8 9 10 11 9 9 10 10 10 9 8 8 7 6 6 6 6 7 7 8 8 9 9 10 10 8 7 7 7 6 7 8 6 7 3 3 7 6
10 10 9 10 9 9 8 9 8 7 7 7 7 8 9 9 9 8 7 8 8 7 6 7 8 9 8 10 10 10 10 11 10 9 9 9 7 7 6 5 6 7 8 7 7 9 9 9 9 11 8 8 6 8 9 5 6 6 5 6 7 4
11 11 10 10 9 9 8 9 9 9 8 7 7 7 8 8 9 9 8 9 8 8 7 7 7 8 9 10 10 10 10 10 10 9 9 8 7 7 7 6 6 7 5 7 8 7 8 9 9 11 10 8 6 7 5 4 8 9 8 8 5 8
11 11 11 10 10 9 9 9 9 9 10 10 8 7 8 8 8 8 9 9 8 8 8 7 7 8 9 9 9 10 10 10 10 10 9 9 9 8 8 8 7 8 9 6 7 10 6 9 11 11 10 8 6 7 5 5 8 7 3 1 6 7
12 11 11 11 10 10 10 10 9 9 10 11 11 11 10 10 10 10 9 9 8 8 8 7 7 7 8 8 8 9 9 10 10 9 9 10 10 9 9 9 8 9 10 11 9 13 11 12 9 9 8 8 7 9 10 11 9 6 5 4 5 7
Wind_Direction
165 164 162 158 159 160 149 155 152 143 143 148 152 152 145 149 156 164 170 173 176 181 168 155 160 151 146 148 111 118 145 144 148 145 143 139 142 141 140 140 138 126 126 123 121 123 124 130 128 135 135 168 192 218 77 96 100 106 109 118 107 103
169 169 165 164 160 157 154 174 162 159 163 157 160 161 168 172 174 170 183 178 188 177 180 167 166 146 159 137 137 133 135 141 142 141 129 130 133 139 140 135 134 130 127 128 140 142 134 131 134 137 163 182 214 79 122 102 91 92 93 94 102 103
185 170 168 166 162 157 161 166 162 164 163 170 164 179 174 177 179 174 180 181 172 209 195 176 163 163 145 135 128 138 132 138 142 139 125 118 124 133 132 132 134 137 137 154 176 140 142 149 144 154 179 210 118 128 93 92 101 93 87 85 97 107
177 167 172 169 165 161 160 163 165 164 164 172 173 185 178 182 180 180 173 178 173 197 249 160 140 143 134 145 135 137 139 136 136 138 137 139 122 121 128 132 136 140 160 188 156 162 150 146 149 179 193 155 120 115 135 127 94 81 93 104 98 115
172 166 185 168 169 160 154 183 164 163 171 173 177 181 184 195 181 179 184 124 161 256 216 119 185 185 182 156 155 156 157 159 157 152 183 164 170 145 169 159 152 174 187 193 164 154 145 133 149 162 146 109 119 128 105 84 85 98 92 89 98 114
175 177 175 170 165 151 164 161 169 171 177 173 180 185 179 185 183 183 206 187 180 200 189 160 181 220 172 168 175 173 169 159 154 152 190 179 182 174 179 170 171 187 195 178 159 153 135 142 148 154 141 127 122 136 114 87 86 93 92 102 116 112
179 175 160 156 152 162 167 167 164 177 184 173 199 181 185 187 180 182 201 199 184 184 210 170 192 197 198 181 175 187 179 164 160 160 183 191 188 190 196 179 185 192 188 169 167 147 149 157 156 147 139 145 123 115 119 118 104 99 109 108 107 122
170 146 152 155 174 134 200 170 159 183 196 168 194 188 192 187 174 190 199 192 196 208 191 195 171 242 243 197 187 179 186 188 170 169 173 205 190 202 205 194 196 194 187 170 159 156 151 154 158 161 140 126 134 120 107 113 98 89 98 109 126 137
149 159 152 166 179 167 240 191 183 188 192 188 196 196 194 184 194 194 194 202 200 210 208 193 189 198 193 209 197 199 201 197 190 171 174 202 200 198 204 208 201 197 190 169 162 162 169 171 164 170 136 125 112 97 116 106 114 126 119 129 130 120
159 156 155 174 179 175 177 220 193 191 196 197 199 196 185 198 201 206 200 209 204 207 219 185 203 199 186 194 211 224 220 206 199 181 191 192 200 199 201 205 201 196 188 185 171 169 181 175 179 145 134 121 133 143 147 123 136 123 111 105 95 128
153 155 165 185 182 186 193 195 195 198 195 203 192 188 194 206 204 210 211 198 209 199 205 217 179 254 213 193 207 225 227 215 210 197 200 195 199 202 201 198 200 191 183 194 180 164 196 177 172 156 142 149 155 142 148 120 117 131 133 131 129 141
141 149 164 184 181 199 199 203 201 205 207 210 197 198 202 207 220 215 215 205 211 211 212 204 211 206 197 198 201 218 231 228 220 206 205 207 199 204 200 195 198 192 196 194 175 161 180 178 180 180 168 153 143 152 159 144 138 146 146 139 141 147
155 158 171 185 190 201 207 207 215 216 214 215 208 209 216 210 214 222 221 223 225 226 209 204 203 218 200 205 203 212 230 232 227 221 212 206 213 198 204 194 193 189 187 181 182 158 173 185 187 184 171 152 165 170 162 162 158 160 158 156 161 157
190 177 188 193 192 214 210 215 228 234 238 235 243 253 234 231 221 235 216 216 225 230 226 217 201 204 216 214 205 211 227 229 232 217 215 202 210 208 206 200 200 200 191 189 184 179 170 177 185 189 175 169 185 171 165 164 169 154 161 170 162 164
187 217 196 197 203 211 214 224 225 227 241 265 263 259 262 246 233 232 234 220 232 234 234 230 210 202 214 219 205 214 221 228 227 224 220 212 216 213 206 203 199 202 189 196 189 189 189 182 185 191 187 187 186 170 183 175 168 175 174 146 181 157
164 223 225 207 216 228 225 232 234 227 225 224 243 255 255 258 265 252 252 259 237 237 233 238 229 217 214 237 228 216 216 226 225 226 224 213 216 213 209 206 203 203 193 199 190 186 186 181 188 193 197 200 189 189 189 176 177 194 157 164 180 155
158 185 209 226 237 233 235 233 234 235 249 236 227 230 239 252 254 272 276 273 264 252 241 232 236 228 228 232 231 230 227 224 225 226 227 226 221 219 204 205 205 208 194 192 185 184 185 184 180 192 195 205 199 197 181 171 192 185 160 191 161 164
163 193 221 235 232 238 240 246 249 232 226 246 249 251 269 259 256 254 253 266 272 263 255 253 250 248 240 235 238 228 227 225 233 232 228 226 230 226 206 200 196 201 198 197 196 188 186 181 177 185 198 197 201 188 175 198 190 195 195 181 176 171
241 227 203 220 235 233 235 239 235 233 207 207 226 256 255 248 235 215 219 240 267 294 285 268 251 240 231 232 233 238 234 226 228 232 233 229 223 220 212 202 202 186 194 201 206 184 182 181 179 181 188 191 194 187 193 204 200 201 203 185 175 173
194 214 234 228 233 239 243 233 232 223 222 199 192 194 227 223 218 224 217 208 216 206 219 234 224 223 225 225 220 225 220 220 225 226 229 230 225 217 206 198 187 178 179 198 204 186 176 178 175 181 179 187 190 193 208 202 211 207 205 186 185 180
170 213 213 222 235 243 241 239 242 246 245 221 212 212 234 239 228 220 221 225 220 208 203 206 207 220 226 228 225 217 224 221 214 219 217 229 235 229 216 212 177 161 180 191 191 182 178 175 170 170 178 181 175 186 208 217 233 228 202 193 187 185
163 177 213 235 242 240 249 260 266 248 239 226 216 226 241 248 239 231 232 232 224 209 216 216 212 225 234 235 229 212 215 221 217 222 218 228 215 174 202 220 178 179 202 190 191 184 179 182 185 182 177 182 190 200 210 220 228 215 205 196 194 192
176 183 183 197 224 242 239 245 244 238 230 223 227 240 246 250 239 231 218 229 234 237 235 234 230 224 226 230 231 226 214 216 212 208 213 221 177 176 189 183 184 191 192 202 190 191 189 197 187 196 195 193 194 202 206 220 216 229 201 202 200 193
165 203 210 212 228 219 243 260 243 239 241 250 250 233 245 256 249 221 219 223 232 233 239 239 236 231 231 231 228 230 228 218 210 198 200 205 184 178 178 192 190 197 187 187 191 196 204 208 236 184 210 212 190 217 211 205 190 206 199 202 199 198
170 202 199 208 223 241 224 235 236 236 241 246 253 255 254 258 259 252 235 228 228 228 234 240 251 245 241 237 229 228 224 216 214 198 195 202 186 192 187 183 177 188 194 182 178 195 209 236 254 282 138 173 139 215 237 203 180 188 194 200 204 203
23 325 234 221 243 265 235 227 228 239 234 242 244 237 239 249 248 251 240 223 239 231 227 237 242 241 238 234 231 229 228 220 210 205 199 208 215 206 192 196 179 169 190 207 171 181 201 218 239 260 193 261 269 251 225 166 167 188 188 212 200 207
13 358 359 330 312 281 257 258 242 241 251 255 266 261 253 249 263 265 267 248 237 235 231 225 231 235 235 233 227 219 219 223 221 213 200 204 209 196 196 193 159 174 192 192 194 195 201 201 210 236 228 223 259 262 268 188 195 166 187 198 219 202
12 8 352 333 320 304 274 263 260 254 251 254 253 264 264 255 244 245 259 244 240 235 230 230 224 225 236 238 233 219 211 219 222 218 195 204 207 196 186 180 174 187 192 187 186 191 192 202 198 211 203 209 228 246 277 220 221 187 193 188 197 198
16 7 1 337 313 303 299 301 293 278 271 265 267 268 267 256 235 234 242 241 232 234 226 226 225 227 233 238 235 221 206 215 213 209 195 203 203 194 184 186 189 193 185 192 199 197 191 201 202 213 195 213 219 230 223 231 238 194 194 184 185 186
19 5 356 345 340 327 317 300 292 293 281 271 260 258 256 254 243 233 243 250 240 232 232 230 231 232 232 230 231 225 210 205 207 209 205 199 189 179 185 197 192 183 191 196 206 209 210 210 209 216 216 217 221 216 211 219 202 176 217 173 188 195
19 8 0 350 337 330 323 320 301 288 283 280 281 275 261 256 253 245 244 246 250 250 249 242 237 234 226 224 230 228 222 205 200 207 208 201 188 184 186 195 178 186 212 206 204 205 210 208 214 229 223 225 216 199 210 219 213 197 199 195 202 177
19 10 2 350 338 333 333 318 308 302 295 292 292 281 262 259 261 259 248 241 241 240 233 227 219 230 229 220 220 218 224 214 202 199 205 207 196 184 186 190 189 190 200 204 206 208 211 210 210 220 221 219 225 217 228 251 299 244 234 250 241 166
14 9 3 353 348 341 336 339 324 306 299 306 300 291 283 275 267 263 257 241 237 242 236 226 224 220 223 219 217 216 215 209 202 201 201 205 200 190 194 189 193 177 201 197 207 213 220 219 216 221 221 223 219 216 211 229 200 242 259 226 245 225
7 5 356 358 353 355 344 338 332 315 302 300 296 295 289 282 281 274 267 260 252 251 252 244 235 229 221 223 218 216 215 207 202 195 195 202 194 192 188 189 186 194 187 201 215 225 230 228 229 232 223 218 217 229 230 209 224 230 225 211 241 231
358 358 347 351 355 354 351 339 331 324 315 301 295 291 289 280 277 280 277 269 260 255 250 244 242 231 217 215 220 214 215 204 197 195 194 191 186 185 185 193 196 196 200 211 218 224 230 226 228 228 227 232 222 231 226 189 225 219 197 236 207 211
354 352 353 351 351 347 345 341 332 331 324 319 306 291 278 277 271 269 271 268 262 257 249 248 249 243 223 214 213 214 213 204 201 198 189 183 184 188 189 192 191 197 194 197 206 224 226 234 231 229 232 225 223 237 235 224 236 227 188 167 278 274
353 352 352 349 347 344 342 338 335 332 330 324 320 310 302 288 279 271 265 259 256 259 262 253 252 247 243 221 217 217 211 205 201 201 194 190 191 195 192 191 193 196 201 204 211 217 208 219 214 225 227 222 233 231 207 209 213 217 204 192 227 264